Airfield :
LOGIN :

Register | Disclaimer

   EN    FR    IT 

 










Legend :    VFR   Marginal VFR   IFR   Intensive IFR   Very Intensive IFR
Visi :
Ceiling :
>= 8 km
>= 3000ft
5 to 8 km
1000 to 3000 ft
1500m to 5 km
500 to 1000 ft
800 to 1500m
200 to 500 ft
< 800m
< 200 ft
Symbols :   Thunderstorms  Fog  Heavy snow  Heavy precipitations  Wind > 20 kt
SIGMETs :     Misc.  Thunderstorms  Icing  Turbulence  Mountain Waves  Volcanic Ashes






- Airport Elevation : 330 ft
- IATA code : LVA


LFOV - Laval-Entrammes

CURRENT METAR :
  • 060630Z AUTO 21007KT 9999 OVC010 12/10 Q1016

EXPIRED METARs :
  • 060600Z AUTO 19007KT 9999 BKN012 OVC018 12/09 Q1016
  • 060530Z AUTO 20008KT 9999 -RADZ BKN019/// BKN078/// OVC094/// ///CB 12/09 Q1015
  • 060500Z AUTO 18008KT 9999 -RA FEW025/// OVC092/// ///TCU 12/09 Q1015
  • 060430Z AUTO 19007KT 9999 BKN025 BKN045 OVC100 12/08 Q1014
  • 060400Z AUTO 19004KT CAVOK 11/06 Q1014

TAF N/A



MET'MAP, your aeronautical weather chart ! - Copyright ORBIFLY December 2007 - Disclaimer

ORBIFLY MET'MAP TEAM :

Programming & Development : Alexandra Zaïnal
Concept & original design : Baudouin d'Aumeries
Assistance for programming : Marc-Olivier Méhu
Technical & hardware support : Manuel Goepfert

Contact : metmap@orbifly.com




SOURCES & CREDITS :

   NOAA